Location: Newark
(13.6797°N, 8.5297°E)
Time: 14:56:58
(UTC+00:00)

Courier 1B Rocket - Pass Details

Date: 27 January 2020
Orbit: 920 x 1202 km, 28.2° (Epoch: 22 February)

Event Time Altitude Azimuth Distance (km) Brightness Sun altitude
Rises 18:16:43 0° 274° (W) 3,574 9.4 -13.1°
Reaches altitude 10° 18:20:00 10° 258° (WSW) 2,610 8.7 -13.9°
Maximum altitude 18:24:31 21° 211° (SSW) 1,942 7.2 -15.0°
Drops below altitude 10° 18:29:02 10° 164° (SSE) 2,610 7.3 -16.0°
Sets 18:32:21 0° 148° (SSE) 3,574 7.8 -16.8°
